Date String (YYYY-MM-DD hh:mm:ss) UTC,Instrument flags,Ambient pressure (hPa),Sample flow (lpm),Bypass flow (lpm),Sample temperature (°C),Ambient temperature (°C),ASC tube jacket temperature (°C),LED temperature (°C),Box temperature (°C),Sample RH (%),Span deviation,Mass concentration (μg/m³),Mass concentration (μg/m³),Mass concentration (μg/m³)
DateTimeUTC,F1_M11,P_M11,Q1_M11,Q2_M11,T1_M11,T2_M11,T3_M11,T4_M11,T5_M11,U1_M11,ZSPAN_M11,X0_M11,X2_M11,X1_M11
2021-10-10 15:00:00,,0824.2,5.02,0.00,27.4,26.5,00.0,36.4,29.2,13.8,0000.0,0006.08,0002.28,0001.67
2021-10-10 15:01:00,,0824.3,4.99,0.00,27.4,26.5,00.0,36.4,29.2,14.0,0000.0,0005.96,0002.26,0001.66
2021-10-10 15:02:00,,0824.2,5.00,0.00,27.4,26.5,00.0,36.5,29.3,13.7,0000.0,0006.25,0002.26,0001.65
2021-10-10 15:03:00,,0824.2,5.00,0.00,27.4,26.5,00.0,36.5,29.2,13.8,0000.0,0006.42,0002.30,0001.66
2021-10-10 15:04:00,,0824.3,5.01,0.00,27.4,26.5,00.0,36.5,29.2,13.9,0000.0,0005.54,0002.34,0001.66
2021-10-10 15:05:00,,0824.2,4.98,0.00,27.4,26.6,00.0,36.5,29.3,13.7,0000.0,0005.16,0002.34,0001.66
2021-10-10 15:06:00,,0824.3,5.00,0.00,27.4,26.6,00.0,36.5,29.3,13.6,0000.0,0005.21,0002.38,0001.66
2021-10-10 15:07:00,,0824.2,5.01,0.00,27.4,26.6,00.0,36.5,29.3,13.8,0000.0,0005.55,0002.38,0001.67
2021-10-10 15:08:00,,0824.2,5.01,0.00,27.4,26.6,00.0,36.5,29.3,13.6,0000.0,0006.23,0002.39,0001.66
2021-10-10 15:09:00,,0824.2,5.00,0.00,27.4,26.6,00.0,36.5,29.3,13.5,0000.0,0006.33,0002.43,0001.66
2021-10-10 15:10:00,,0824.2,4.99,0.00,27.5,26.6,00.0,36.5,29.3,13.3,0000.0,0006.28,0002.40,0001.65
2021-10-10 15:11:00,,0824.2,5.00,0.00,27.5,26.6,00.0,36.5,29.3,13.3,0000.0,0006.32,0002.41,0001.64
2021-10-10 15:12:00,,0824.2,5.00,0.00,27.5,26.7,00.0,36.5,29.4,13.2,0000.0,0006.17,0002.37,0001.64
2021-10-10 15:13:00,,0824.2,5.01,0.00,27.5,26.7,00.0,36.5,29.4,13.2,0000.0,0005.78,0002.32,0001.65
2021-10-10 15:14:00,,0824.1,4.99,0.00,27.5,26.7,00.0,36.6,29.4,13.0,0000.0,0005.64,0002.28,0001.65
2021-10-10 15:15:00,,0824.2,4.99,0.00,27.5,26.7,00.0,36.6,29.4,13.2,0000.0,0005.49,0002.25,0001.66
2021-10-10 15:16:00,,0824.1,4.99,0.00,27.6,26.7,00.0,36.6,29.4,13.5,0000.0,0004.82,0002.22,0001.67
2021-10-10 15:17:00,,0824.2,5.00,0.00,27.6,26.7,00.0,36.6,29.4,13.4,0000.0,0004.75,0002.18,0001.67
2021-10-10 15:18:00,,0824.2,5.01,0.00,27.6,26.8,00.0,36.6,29.5,13.3,0000.0,0004.42,0002.17,0001.67
2021-10-10 15:19:00,,0824.2,5.00,0.00,27.6,26.8,00.0,36.6,29.5,13.3,0000.0,0003.75,0002.15,0001.69
2021-10-10 15:20:00,,0824.1,4.99,0.00,27.6,26.8,00.0,36.6,29.5,13.5,0000.0,0003.59,0002.10,0001.69
2021-10-10 15:21:00,,0824.1,5.00,0.00,27.6,26.8,00.0,36.7,29.5,13.3,0000.0,0003.62,0002.13,0001.71
2021-10-10 15:22:00,,0824.1,5.00,0.00,27.7,26.8,00.0,36.7,29.5,13.5,0000.0,0003.54,0002.12,0001.73
2021-10-10 15:23:00,,0824.1,5.00,0.00,27.7,26.9,00.0,36.7,29.5,13.8,0000.0,0003.87,0002.22,0001.75
2021-10-10 15:24:00,,0824.1,5.01,0.00,27.7,26.9,00.0,36.7,29.6,13.6,0000.0,0003.78,0002.19,0001.74
2021-10-10 15:25:00,,0824.1,5.00,0.00,27.7,26.9,00.0,36.7,29.6,13.6,0000.0,0003.84,0002.21,0001.74
2021-10-10 15:26:00,,0824.1,5.01,0.00,27.7,26.9,00.0,36.7,29.6,13.5,0000.0,0003.86,0002.23,0001.75
2021-10-10 15:27:00,,0824.1,5.00,0.00,27.7,26.9,00.0,36.7,29.6,13.3,0000.0,0004.18,0002.25,0001.75
2021-10-10 15:28:00,,0824.1,5.01,0.00,27.7,26.9,00.0,36.8,29.6,13.3,0000.0,0004.31,0002.28,0001.76
2021-10-10 15:29:00,,0824.1,5.00,0.00,27.7,26.9,00.0,36.8,29.6,13.2,0000.0,0004.09,0002.27,0001.76
2021-10-10 15:30:00,,0824.1,4.99,0.00,27.8,26.9,00.0,36.8,29.6,13.1,0000.0,0004.00,0002.26,0001.76
2021-10-10 15:31:00,,0824.1,4.99,0.00,27.8,26.9,00.0,36.8,29.6,13.5,0000.0,0004.15,0002.29,0001.77
2021-10-10 15:32:00,,0824.0,5.01,0.00,27.8,26.9,00.0,36.8,29.6,13.6,0000.0,0004.88,0002.32,0001.78
2021-10-10 15:33:00,,0824.0,5.00,0.00,27.8,26.9,00.0,36.8,29.6,13.2,0000.0,0005.00,0002.33,0001.78
2021-10-10 15:34:00,,0824.1,5.00,0.00,27.8,26.9,00.0,36.8,29.7,13.1,0000.0,0005.62,0002.28,0001.78
2021-10-10 15:35:00,,0824.0,4.99,0.00,27.8,26.9,00.0,36.8,29.7,13.2,0000.0,0006.03,0002.34,0001.80
2021-10-10 15:36:00,,0824.0,5.01,0.00,27.8,27.0,00.0,36.8,29.6,13.1,0000.0,0006.02,0002.35,0001.80
2021-10-10 15:37:00,,0824.0,5.00,0.00,27.8,27.0,00.0,36.8,29.7,13.2,0000.0,0006.02,0002.35,0001.82
2021-10-10 15:38:00,,0824.0,5.00,0.00,27.8,27.0,00.0,36.8,29.7,13.1,0000.0,0005.98,0002.36,0001.83
2021-10-10 15:39:00,,0824.0,5.00,0.00,27.8,27.0,00.0,36.9,29.7,13.0,0000.0,0006.05,0002.35,0001.84
2021-10-10 15:40:00,,0824.0,5.01,0.00,27.8,27.0,00.0,36.9,29.7,13.0,0000.0,0006.16,0002.38,0001.85
2021-10-10 15:41:00,,0824.0,5.00,0.00,27.8,27.0,00.0,36.9,29.7,13.2,0000.0,0006.34,0002.42,0001.86
2021-10-10 15:42:00,,0824.0,4.98,0.00,27.9,27.0,00.0,36.9,29.7,13.2,0000.0,0006.38,0002.42,0001.86
2021-10-10 15:43:00,,0824.1,4.99,0.00,27.9,27.0,00.0,36.9,29.7,13.1,0000.0,0006.37,0002.41,0001.86
2021-10-10 15:44:00,,0824.0,5.00,0.00,27.9,27.0,00.0,36.9,29.7,13.1,0000.0,0006.79,0002.41,0001.86
2021-10-10 15:45:00,,0824.0,5.01,0.00,27.9,27.0,00.0,36.9,29.7,13.0,0000.0,0005.85,0002.40,0001.86
2021-10-10 15:46:00,,0824.0,5.00,0.00,27.9,27.0,00.0,36.9,29.8,13.1,0000.0,0005.68,0002.39,0001.86
2021-10-10 15:47:00,,0824.0,4.99,0.00,27.9,27.0,00.0,36.9,29.8,13.4,0000.0,0005.77,0002.41,0001.88
2021-10-10 15:48:00,,0824.0,5.00,0.00,27.9,27.1,00.0,36.9,29.8,13.4,0000.0,0005.82,0002.39,0001.90
2021-10-10 15:49:00,,0824.0,5.00,0.00,27.9,27.1,00.0,36.9,29.8,13.3,0000.0,0005.75,0002.41,0001.90
2021-10-10 15:50:00,,0824.0,4.99,0.00,27.9,27.1,00.0,37.0,29.8,13.4,0000.0,0005.54,0002.42,0001.89
2021-10-10 15:51:00,,0824.0,5.00,0.00,27.9,27.1,00.0,37.0,29.8,13.3,0000.0,0005.56,0002.45,0001.90
2021-10-10 15:52:00,,0824.1,5.00,0.00,27.9,27.1,00.0,37.0,29.8,13.2,0000.0,0005.58,0002.45,0001.92
2021-10-10 15:53:00,,0824.1,5.01,0.00,28.0,27.1,00.0,37.0,29.8,13.3,0000.0,0006.70,0002.45,0001.94
2021-10-10 15:54:00,,0824.0,4.98,0.00,28.0,27.1,00.0,37.0,29.8,13.4,0000.0,0006.33,0002.43,0001.92
2021-10-10 15:55:00,,0824.0,5.00,0.00,28.0,27.1,00.0,37.0,29.8,13.4,0000.0,0005.51,0002.41,0001.91
2021-10-10 15:56:00,,0824.0,5.00,0.00,28.0,27.1,00.0,37.0,29.8,13.3,0000.0,0005.54,0002.41,0001.91
2021-10-10 15:57:00,,0824.1,5.01,0.00,28.0,27.1,00.0,37.0,29.8,13.3,0000.0,0005.46,0002.37,0001.89
2021-10-10 15:58:00,,0824.1,5.00,0.00,28.0,27.1,00.0,37.0,29.8,13.2,0000.0,0005.68,0002.34,0001.85
2021-10-10 15:59:00,,0824.1,5.00,0.00,28.0,27.1,00.0,37.0,29.8,13.2,0000.0,0005.44,0002.31,0001.80
